Wind_Speed
19 20 20 19 17 15 16 18 20 21 20 20 21 22 22 25 26 21 21 24 25 28 29 28 31 32 29 27 24 23 23 23 22 18 17 16 16 16 15 14 14 16 17 16 15 14 14 15 14 14 14 16 18 21 23 25 27 29 31 34 36 38 41 43 45 46 47 48 49 50 50 49 49 49 48 47 46 46 46 45 45 45 45 44 45 47
19 21 20 18 17 16 18 21 23 22 21 21 22 22 24 24 24 21 21 24 25 29 30 30 33 33 29 26 23 23 23 21 18 17 17 17 17 17 16 15 17 18 17 16 15 15 16 17 18 18 18 20 22 24 26 28 30 32 34 37 39 42 44 45 47 49 50 51 51 52 51 50 50 49 49 49 48 48 47 46 46 46 46 45 45 46
19 20 19 16 16 18 22 24 24 22 21 22 22 23 24 21 21 21 21 24 26 30 32 31 33 35 29 22 18 18 18 16 15 16 17 18 19 18 18 18 19 18 16 15 15 16 17 18 20 21 23 25 27 29 31 33 34 36 38 41 43 45 47 48 50 51 52 52 52 52 51 50 50 49 49 50 51 51 50 49 48 47 47 47 46 46
18 19 18 18 20 23 25 23 22 23 23 23 22 22 23 21 20 21 23 26 28 31 32 28 33 36 25 12 10 10 13 14 13 15 17 19 19 19 19 19 19 17 16 16 16 17 19 20 22 24 27 29 31 33 34 36 38 40 42 44 46 48 50 51 52 53 53 52 52 51 51 50 50 49 49 49 50 51 52 52 52 51 50 49 48 47
20 21 21 22 23 23 23 22 22 24 25 24 22 21 22 21 21 23 26 29 31 30 25 23 30 30 13 5 10 11 13 14 12 15 18 19 19 19 19 18 19 18 17 18 19 20 22 23 25 27 31 34 36 36 37 39 41 42 44 46 49 51 53 54 55 55 54 54 53 52 51 51 50 49 48 48 48 49 51 52 52 52 52 51 50 48
23 23 22 22 21 20 22 24 24 25 25 23 21 20 20 21 21 23 26 29 30 24 18 19 19 14 8 10 16 16 14 14 15 16 18 19 19 17 17 20 23 21 19 20 21 23 25 26 28 31 35 39 39 39 40 42 43 45 47 50 51 53 55 56 56 55 54 54 53 52 52 51 50 50 48 47 48 48 49 50 51 51 51 51 50 50
23 22 20 21 21 22 25 26 25 24 23 22 21 20 20 21 22 24 26 26 24 19 20 23 13 12 20 19 17 19 17 15 15 16 18 18 16 14 18 24 26 22 21 22 23 25 27 28 30 34 38 40 40 41 42 44 46 48 50 52 54 56 57 57 56 55 54 53 52 51 51 50 49 49 47 46 47 47 48 49 51 52 52 51 51 50
22 22 22 23 25 26 27 27 25 22 21 21 22 21 20 21 22 24 25 24 25 24 25 23 13 15 22 16 12 17 18 16 14 14 14 13 13 16 21 25 24 22 22 23 24 26 28 30 33 37 39 40 41 43 45 48 50 51 53 55 56 58 58 58 58 58 56 54 51 50 49 49 48 48 48 47 46 46 47 49 50 52 53 53 52 51
24 24 24 24 24 24 25 24 23 22 21 21 22 20 19 21 22 23 25 25 23 18 18 18 9 9 12 11 13 13 14 14 12 10 10 11 14 19 22 22 22 22 22 23 25 27 29 31 34 37 39 41 44 47 49 51 53 55 56 58 58 59 59 59 58 56 55 53 51 49 47 47 46 46 46 46 46 46 47 48 49 51 53 55 55 54
23 21 20 20 21 22 22 21 21 21 21 21 20 19 20 21 22 21 21 19 12 8 14 16 8 6 8 10 10 8 9 10 9 10 13 15 18 20 21 21 21 21 22 24 26 28 30 33 36 39 41 44 48 50 53 55 57 58 59 60 60 60 58 54 51 49 48 47 47 46 45 45 44 44 44 44 45 45 47 48 49 50 53 55 56 56
18 17 17 19 20 21 21 20 20 20 20 19 18 20 22 20 18 16 15 12 6 4 9 9 8 5 5 4 1 4 6 9 12 16 18 19 20 20 20 20 20 21 23 25 27 29 33 36 39 43 46 48 51 54 57 59 61 62 63 63 62 59 55 48 44 43 42 41 43 44 44 43 42 42 42 42 43 44 45 47 49 50 52 54 56 57
17 17 19 21 20 19 19 18 18 17 15 15 16 19 19 15 11 9 9 4 1 3 5 6 4 4 5 2 4 6 6 11 17 20 20 21 21 19 18 18 19 21 24 27 30 33 38 42 45 47 48 50 53 57 61 63 64 65 66 64 61 56 51 47 43 42 41 40 41 42 41 41 40 40 41 42 43 44 45 47 48 49 50 52 54 56
20 19 18 16 15 15 15 16 14 13 13 14 16 15 11 9 6 4 3 2 3 2 2 3 5 7 12 13 13 14 11 13 17 19 21 21 20 19 19 20 22 25 29 32 35 39 44 47 48 49 51 53 56 62 65 65 65 65 64 61 57 53 50 48 46 45 43 42 40 39 38 39 40 42 43 45 46 47 48 49 49 50 50 51 52 54
16 15 11 9 11 12 12 13 11 12 15 15 14 12 6 3 4 3 3 3 4 2 3 10 13 13 16 14 13 14 13 14 15 17 19 19 18 18 19 22 26 29 34 37 41 46 48 50 51 52 54 56 60 64 64 63 62 61 58 55 53 51 49 48 48 48 46 44 42 39 38 38 39 41 44 46 48 48 48 49 50 51 51 51 51 52
11 12 9 9 11 11 12 12 13 17 19 16 12 10 8 5 4 3 2 3 6 9 12 15 11 10 12 8 10 10 10 12 14 15 17 17 17 19 22 25 29 33 37 42 46 49 50 52 53 53 55 58 62 63 62 60 59 57 54 51 49 49 48 48 48 48 48 47 46 44 43 42 42 42 44 47 47 47 48 48 49 50 51 51 50 51
12 10 9 11 11 14 17 17 19 20 15 11 10 8 8 9 8 9 11 13 15 12 11 11 10 12 13 8 9 9 9 12 12 12 13 15 19 22 25 29 32 36 40 46 50 51 52 53 52 52 55 60 64 64 61 57 55 53 51 49 48 47 47 48 48 48 49 49 49 49 49 49 48 48 50 51 51 50 50 50 49 49 51 52 52 52
10 10 12 15 17 19 20 19 19 17 12 11 13 10 10 11 11 13 14 14 12 7 5 8 8 8 8 5 5 6 8 9 10 10 13 18 22 25 29 33 37 41 47 51 52 52 51 50 51 53 58 63 65 62 57 54 52 51 49 48 47 47 47 47 48 49 49 49 49 50 52 54 54 55 55 56 56 56 55 55 53 51 51 53 53 53
13 19 21 19 19 18 17 18 19 17 16 16 14 13 12 10 9 9 7 5 4 3 4 7 7 9 10 6 7 8 7 10 14 16 18 23 27 31 35 39 43 48 52 52 51 50 49 50 53 57 62 65 63 57 53 51 51 50 49 48 47 47 47 47 48 49 49 49 49 49 50 53 55 57 57 58 58 58 58 58 58 55 53 54 55 55
16 20 21 16 14 15 17 20 21 18 15 14 14 13 11 8 7 5 3 3 3 3 4 7 11 16 15 9 8 6 9 14 18 21 25 30 33 35 38 43 48 52 53 52 52 51 51 53 57 61 65 63 56 51 51 51 50 49 49 48 48 48 47 47 47 48 49 48 48 48 49 51 52 55 56 56 58 59 58 58 59 59 55 54 55 56
16 13 15 16 15 19 22 20 18 17 15 13 12 12 11 9 8 7 7 6 4 4 4 5 7 7 7 5 7 10 13 17 21 24 30 33 34 38 43 48 51 51 52 54 53 52 54 57 61 65 63 56 50 50 52 52 51 50 49 49 49 49 48 47 47 47 48 49 48 48 49 50 51 52 54 54 55 56 57 57 58 59 57 54 54 55
16 9 13 20 22 22 23 19 17 17 16 13 11 12 12 9 7 9 12 13 10 5 3 3 3 1 5 10 12 12 15 20 24 27 31 35 39 44 47 48 50 50 51 53 53 54 58 62 64 62 55 50 50 53 53 53 53 51 50 49 49 48 48 47 47 47 48 49 49 50 50 50 51 51 52 53 53 54 56 56 58 60 59 57 56 56
14 10 17 24 25 23 21 20 20 19 17 16 13 11 9 7 8 8 8 9 10 8 6 5 4 7 13 14 11 11 16 23 27 31 37 42 46 47 46 47 50 51 52 53 54 57 60 62 61 54 50 52 54 55 56 55 54 51 50 48 48 47 47 48 48 49 49 49 49 50 50 50 51 51 52 53 53 54 55 56 58 59 60 60 59 57
15 16 20 22 22 22 21 20 22 22 18 14 10 10 10 11 12 10 7 8 9 11 13 12 8 11 14 10 7 14 22 27 33 37 42 47 47 46 48 52 53 52 53 55 57 58 57 56 53 49 51 56 58 58 58 56 54 52 49 48 48 48 48 48 48 48 48 49 49 49 50 50 51 51 52 53 54 54 55 56 56 57 58 60 60 60
16 13 16 21 22 21 20 17 14 12 9 9 12 17 18 17 16 15 14 16 17 15 16 12 6 6 6 7 8 22 30 34 39 43 46 46 45 47 51 54 52 52 55 57 57 57 55 52 50 50 56 60 61 61 60 57 54 52 50 49 50 49 49 49 49 49 49 50 50 50 51 52 52 53 53 54 54 54 54 54 55 55 55 56 59 61
15 11 14 18 17 15 12 6 4 6 11 17 20 20 20 19 20 19 16 16 15 12 11 8 6 7 9 11 20 31 35 40 44 46 45 43 46 51 54 53 52 54 57 57 55 53 51 50 50 53 60 64 64 64 62 58 55 52 51 51 51 51 50 50 50 51 51 51 52 52 53 54 54 54 54 54 54 54 53 53 53 53 53 54 58 60
18 16 15 12 7 6 7 6 8 16 23 26 24 21 21 22 22 19 14 10 9 8 10 11 13 19 21 24 31 37 39 43 44 43 43 45 50 55 54 54 56 58 58 55 51 48 47 49 51 55 62 67 67 66 64 58 54 53 52 52 52 52 51 50 51 51 52 53 53 54 54 54 54 54 54 54 54 53 53 52 52 52 53 54 55 56
17 19 17 14 14 15 18 19 20 23 26 27 24 21 21 21 20 19 15 11 10 14 16 14 16 24 29 31 37 40 40 41 40 41 46 50 53 55 55 57 58 57 53 48 45 45 47 50 53 58 66 69 69 68 65 60 56 54 53 52 52 52 52 52 52 53 54 54 54 54 54 54 54 54 54 55 55 54 53 53 53 53 54 54 54 53
18 21 21 19 20 21 23 24 23 21 21 21 18 17 18 19 19 18 15 11 10 12 14 14 17 27 33 35 38 39 38 37 40 45 50 53 55 57 57 57 55 50 46 44 44 46 49 52 56 62 70 72 71 70 65 59 57 55 54 54 53 52 53 53 54 55 55 54 54 54 54 53 54 54 54 55 55 55 55 55 56 56 55 53 52 51
20 22 22 21 21 22 22 22 19 15 15 16 15 16 16 16 16 15 12 11 10 10 15 22 27 30 31 32 32 33 34 39 46 51 53 55 57 58 56 52 49 46 45 46 47 49 52 55 60 68 73 73 72 69 63 58 56 55 54 54 53 54 54 55 55 55 55 55 55 54 54 54 54 54 54 54 55 55 55 56 57 57 55 52 50 50
19 20 21 20 21 23 22 19 16 15 16 16 14 14 13 12 11 10 9 10 12 15 20 27 31 29 25 25 28 33 40 47 50 52 54 57 57 55 52 48 46 45 45 46 49 52 56 62 67 71 74 73 71 66 61 58 57 56 54 54 54 55 56 56 56 56 56 56 55 55 54 54 53 54 54 54 55 55 56 57 57 58 57 53 49 48
17 18 18 18 21 23 19 16 17 20 20 15 10 10 9 6 6 7 9 12 17 22 25 28 29 28 26 30 37 43 48 50 51 54 57 55 52 51 49 46 45 45 46 48 52 58 63 67 70 72 73 71 67 63 60 59 57 56 55 55 55 56 56 57 57 57 57 56 55 55 54 54 53 53 53 53 54 55 56 56 57 58 58 55 50 47
16 17 17 16 18 19 17 16 18 20 18 11 7 9 7 5 7 10 12 15 20 24 29 30 29 31 36 44 48 47 47 48 52 55 54 52 52 50 46 44 45 47 50 55 59 64 68 70 72 73 71 67 62 60 60 59 57 56 56 55 56 56 56 57 57 58 57 57 56 55 55 55 55 54 53 52 53 54 55 56 56 56 56 55 51 46
16 16 17 14 13 17 18 16 17 17 13 6 6 9 10 10 14 16 16 18 22 26 31 34 34 36 42 46 45 45 47 51 53 50 49 52 52 47 42 44 48 53 57 62 65 68 72 73 72 70 66 62 60 60 59 58 57 57 56 56 56 56 56 56 57 57 57 57 56 55 55 55 56 56 55 54 53 54 54 54 54 54 53 52 49 44
15 15 17 13 12 18 19 17 16 12 4 2 5 10 12 15 19 19 18 20 26 31 34 36 38 40 41 40 41 45 51 52 50 47 45 46 44 41 44 51 56 61 64 66 68 71 73 71 67 62 60 60 60 59 58 57 57 56 55 55 55 55 56 56 56 56 57 57 56 56 55 55 55 56 56 55 54 54 53 53 52 52 50 49 46 42
15 16 17 14 13 17 17 15 11 4 1 5 12 13 14 17 19 19 20 24 30 37 40 40 40 38 37 38 42 47 51 50 49 46 40 38 41 46 53 59 63 65 67 69 71 71 67 64 61 59 59 59 58 57 56 56 55 55 55 55 55 56 56 56 56 56 56 56 56 56 56 56 56 56 56 55 55 54 53 52 51 50 48 45 42 39
17 16 15 14 12 12 12 11 7 4 6 11 14 13 14 17 19 22 28 32 36 39 40 39 35 33 36 42 47 50 50 51 51 47 41 42 48 53 57 61 65 67 68 69 69 66 62 60 60 60 59 57 57 56 55 55 55 54 54 55 55 56 56 56 56 56 56 56 56 56 57 56 57 57 56 56 55 54 53 51 50 48 46 43 40 37
18 14 13 12 8 6 10 11 10 9 9 10 12 13 15 19 21 24 32 38 39 38 35 32 32 36 42 47 50 51 53 55 54 50 48 50 53 55 58 62 65 65 65 63 61 60 60 59 58 58 58 57 57 56 55 55 55 54 55 55 55 56 56 56 56 56 56 56 56 57 57 57 57 57 57 56 55 54 52 51 49 46 43 40 37 34
17 14 11 9 6 7 11 11 9 6 5 8 12 14 17 21 22 25 35 40 36 29 27 30 37 45 48 49 51 54 55 57 57 55 54 55 56 58 61 62 61 60 58 57 57 58 59 58 57 57 57 57 57 56 55 55 55 55 55 56 56 56 57 57 57 57 57 57 57 57 57 57 57 58 57 57 56 54 52 50 47 45 41 38 35 32
16 13 10 7 6 9 11 9 6 4 5 10 16 19 20 23 28 33 35 30 23 21 28 38 44 48 50 51 53 55 55 56 58 57 56 56 58 60 61 59 57 56 55 55 56 57 57 57 56 55 55 55 55 55 55 55 55 56 56 56 56 57 57 57 58 58 58 58 58 58 58 58 57 57 57 56 55 53 51 48 45 43 40 36 33 30
15 12 9 7 6 9 11 9 8 8 10 16 21 25 27 32 36 31 20 18 26 33 38 44 47 48 51 51 53 55 54 53 54 56 55 55 55 56 56 56 55 55 55 54 54 54 54 54 54 53 53 53 53 54 54 55 55 56 56 56 57 57 57 58 58 58 58 58 58 58 58 58 57 56 56 55 53 51 49 46 43 40 38 35 31 29
13 10 7 6 9 11 11 11 12 13 15 20 24 29 36 39 33 19 13 24 39 43 42 45 48 49 51 50 52 55 54 52 52 54 53 52 51 50 51 51 52 52 53 53 52 52 52 52 52 53 52 52 53 53 54 54 55 55 56 56 57 57 57 58 58 58 58 58 58 59 58 57 56 56 55 54 52 50 47 44 41 38 36 33 30 28
11 10 6 7 13 15 13 14 15 12 15 25 31 34 39 36 25 18 24 33 38 41 45 48 48 50 51 50 51 54 53 52 52 51 49 48 47 48 48 49 49 50 50 51 51 51 51 51 52 52 52 53 54 54 54 55 55 55 55 56 56 57 57 58 58 58 59 59 59 59 58 57 56 55 54 53 51 49 45 42 39 36 34 32 29 27
9 8 5 8 16 18 14 11 8 9 20 33 37 36 36 31 24 26 33 36 38 43 47 47 48 50 51 50 51 51 50 50 49 47 46 45 45 46 47 48 49 49 50 50 51 51 52 52 52 52 53 53 54 55 55 55 55 55 56 56 56 57 57 58 58 59 59 59 59 58 57 56 55 54 53 51 49 46 43 40 37 34 32 30 27 25
9 7 7 12 17 16 13 11 11 17 29 35 33 33 33 28 24 28 34 38 42 45 45 46 48 48 48 49 50 49 48 47 46 46 46 45 45 46 47 48 48 49 49 50 51 51 52 53 53 53 53 53 54 54 55 55 56 56 56 57 57 57 57 57 58 59 59 59 59 58 56 55 54 53 51 49 47 44 41 37 35 32 30 27 25 23
8 7 11 18 19 17 18 19 20 24 28 28 27 29 28 26 27 32 36 40 42 43 44 46 47 46 46 46 46 46 45 45 45 45 46 46 46 47 48 48 48 48 49 50 51 51 52 53 53 53 53 53 54 54 54 55 56 56 56 57 57 57 57 58 58 59 59 58 58 57 56 54 53 52 51 49 45 42 39 35 33 30 28 25 23 21
8 10 16 22 24 24 21 18 21 25 26 26 25 26 27 29 32 36 38 39 40 41 43 45 45 45 44 43 43 44 44 43 44 45 46 47 47 47 48 48 48 49 50 50 51 52 52 52 53 53 53 53 54 54 55 55 55 56 56 56 57 57 57 58 58 58 58 57 56 56 55 54 53 53 51 47 43 39 36 33 31 29 26 23 21 19
9 14 21 26 28 28 24 20 24 29 29 28 27 28 31 34 36 38 39 40 40 41 42 42 42 42 41 40 42 44 43 43 45 45 45 47 47 48 49 49 49 50 51 51 52 52 52 53 53 53 54 54 54 54 54 54 55 55 56 56 56 56 57 57 57 57 57 56 55 55 55 54 53 52 50 46 42 37 32 29 28 27 25 22 19 17
13 18 26 32 32 31 28 27 30 32 30 29 30 33 36 38 38 39 40 41 41 42 42 41 41 41 41 42 43 44 44 44 45 45 46 47 48 49 49 50 50 51 51 51 52 53 53 53 54 54 54 54 53 53 54 54 54 54 54 55 55 56 56 56 56 56 55 55 54 54 54 53 52 51 50 46 40 35 31 28 26 24 23 20 17 15
17 23 30 36 36 34 32 32 34 36 34 32 33 35 38 39 39 39 39 40 42 43 42 42 42 42 42 42 42 44 44 44 44 45 46 46 48 49 49 50 51 51 52 52 53 53 53 54 54 54 54 53 53 53 53 53 53 53 54 54 54 55 56 56 55 54 54 53 53 53 52 51 50 49 48 44 38 32 28 26 25 23 20 17 15 12
20 27 34 38 38 37 34 33 35 37 37 36 35 36 38 39 39 38 39 39 40 42 42 43 43 41 40 41 42 43 43 43 43 44 45 46 48 49 50 51 51 52 52 53 53 53 54 54 54 54 54 53 53 53 53 53 53 52 53 53 54 54 55 55 54 53 52 52 52 51 50 49 48 47 45 41 36 31 25 22 22 22 19 15 12 10
23 31 37 38 38 37 35 33 33 34 36 36 36 36 38 38 38 38 39 39 39 40 41 42 42 41 40 40 41 42 42 43 43 44 45 46 48 49 50 51 52 53 53 53 53 54 54 54 54 54 54 53 53 53 52 52 52 52 52 52 52 53 53 54 53 52 52 51 50 49 48 47 46 44 42 38 34 30 25 20 18 18 17 13 10 8
Wind_Direction
311 307 305 305 302 294 291 297 302 302 300 301 304 304 304 302 304 308 300 305 313 308 308 314 311 311 315 316 311 299 288 283 279 272 267 260 251 248 247 248 247 247 253 258 263 264 261 263 269 280 293 303 310 315 317 318 318 318 318 318 319 318 318 319 320 320 320 320 319 318 318 317 316 315 312 310 308 306 304 302 300 298 296 294 292 293
306 302 301 302 300 294 292 298 302 300 297 301 305 305 306 304 304 303 298 302 309 306 308 315 311 310 316 315 302 290 288 284 271 263 260 251 243 245 246 245 247 251 258 263 266 267 269 273 277 284 293 299 305 311 314 314 315 316 317 318 318 319 319 320 321 321 320 320 318 317 317 316 315 314 312 310 308 306 303 301 299 298 296 294 291 290
302 299 300 302 297 294 296 299 300 297 297 300 303 305 305 305 301 298 298 302 308 307 310 316 310 311 319 313 293 285 287 280 262 257 252 245 242 243 244 247 252 260 265 267 269 273 279 285 290 297 303 307 310 312 314 315 316 317 317 318 318 319 319 320 321 320 320 319 318 317 316 316 315 313 312 310 309 307 305 303 300 298 296 294 292 290
299 295 294 294 293 294 296 298 298 297 298 300 303 304 304 303 297 295 301 306 309 309 313 317 311 314 324 312 283 284 287 276 256 255 250 241 242 246 251 256 262 268 268 268 272 278 285 292 300 306 311 313 313 313 315 317 318 318 318 318 318 319 320 321 320 319 319 318 317 316 315 315 313 312 310 308 307 305 303 302 300 298 296 294 292 290
294 292 292 292 293 295 295 296 299 299 299 301 303 302 301 301 297 297 304 307 309 312 315 319 316 316 325 302 290 291 284 276 256 249 245 238 241 249 258 263 266 267 267 272 279 285 290 296 304 311 316 317 315 314 315 315 316 316 316 317 318 319 320 320 320 319 318 317 316 315 314 313 311 309 307 304 302 300 299 298 297 296 294 293 291 290
295 294 295 295 294 294 294 297 301 299 300 301 301 300 298 299 298 300 305 308 311 315 314 318 320 312 302 300 300 295 277 261 252 246 241 239 244 253 262 265 265 267 271 279 286 291 295 300 306 312 316 317 315 314 314 314 315 315 316 317 318 319 320 319 318 317 316 316 315 314 312 311 309 307 305 303 301 299 297 296 295 295 294 292 291 289
297 297 298 297 296 295 296 298 300 299 299 298 299 301 299 297 299 302 306 307 307 307 304 306 299 279 294 303 299 289 272 251 244 237 237 244 249 255 262 266 270 274 280 286 291 295 299 303 307 311 314 314 312 312 313 313 315 316 318 319 319 319 318 317 316 316 315 315 314 313 311 310 308 306 305 303 302 301 300 299 298 297 295 294 293 292
298 298 299 298 297 297 297 299 299 299 296 294 300 303 299 299 301 305 306 302 299 301 302 301 281 267 290 311 311 282 258 244 237 224 230 244 251 257 261 265 271 277 281 287 292 297 301 303 306 309 310 310 310 312 313 315 316 317 317 318 318 317 317 316 316 315 314 314 313 312 310 309 307 306 305 304 303 302 301 301 300 299 298 297 296 295
300 299 300 298 298 298 299 301 302 300 295 295 302 302 301 303 305 307 302 296 301 303 300 296 269 246 277 306 309 278 234 234 237 215 211 220 238 251 255 260 266 272 279 288 295 299 302 304 306 308 310 312 314 315 316 317 317 318 318 318 317 317 318 318 316 316 315 315 314 313 312 311 309 308 306 305 304 303 302 301 301 300 299 299 298 297
301 300 299 298 299 301 303 303 300 297 296 298 301 302 305 307 307 306 298 298 307 289 284 285 239 221 294 302 289 250 208 230 231 197 199 215 231 240 244 252 260 268 278 288 296 303 305 307 310 312 315 317 319 318 318 318 318 318 318 317 317 318 319 319 318 318 318 319 319 319 318 316 314 312 309 308 306 305 303 302 301 301 300 299 299 298
300 299 299 300 304 304 302 299 296 294 296 298 302 308 312 314 312 301 292 305 324 260 263 257 212 223 314 354 320 225 208 224 210 193 202 216 226 234 241 249 257 269 280 289 299 305 309 311 314 316 319 320 321 320 319 320 319 318 318 318 318 319 319 319 318 320 321 324 325 324 323 322 320 318 316 313 311 309 306 304 303 301 300 299 298 298
300 300 301 303 304 302 300 298 296 296 297 298 308 318 322 321 314 286 276 290 296 250 223 211 215 236 239 273 320 285 235 204 200 202 211 218 223 232 243 255 266 277 285 292 299 306 309 312 315 317 319 319 318 320 321 321 320 319 319 319 319 319 319 319 320 322 325 327 328 326 325 325 324 322 320 317 315 312 310 307 305 303 301 300 299 298
303 303 305 305 303 303 303 302 302 301 301 304 314 324 328 321 307 265 241 233 244 248 185 248 316 293 268 273 280 275 248 208 206 215 221 223 231 242 255 272 285 290 294 299 304 310 313 315 318 319 317 316 318 322 323 322 321 320 320 320 320 321 322 323 324 325 326 326 326 325 324 324 323 322 319 317 315 314 311 309 307 306 304 302 301 300
310 311 313 307 306 307 304 305 307 306 308 310 312 315 314 312 312 287 275 279 279 285 306 312 314 299 288 280 267 264 245 225 228 231 233 237 246 260 276 291 298 301 305 309 313 315 317 319 319 317 315 318 323 326 324 321 320 320 321 322 323 324 325 326 326 325 325 324 324 324 321 320 321 320 318 317 316 315 314 312 311 309 306 305 303 302
305 309 310 308 310 307 302 304 305 306 308 304 299 297 280 260 263 274 302 312 294 295 300 302 299 295 298 275 248 251 239 241 250 245 246 250 257 273 287 294 298 303 308 313 315 317 317 317 315 314 318 324 326 325 322 319 319 320 322 324 325 326 326 325 325 324 325 325 324 322 321 320 321 320 319 318 317 317 316 316 314 311 308 306 304 304
300 295 296 305 307 301 299 300 302 306 307 296 295 295 276 267 258 261 282 287 285 295 296 277 270 290 294 265 242 252 250 256 259 255 263 268 272 282 290 294 300 305 311 315 316 316 315 313 313 316 323 326 325 322 319 317 319 322 324 325 325 325 325 324 324 324 325 324 323 323 323 323 323 323 323 321 319 318 318 317 316 313 310 307 305 304
300 285 293 303 303 302 302 302 305 308 304 294 293 289 279 279 271 269 283 287 279 284 276 255 259 278 272 238 223 238 245 263 277 285 288 288 292 298 302 306 310 314 316 317 316 315 314 314 316 321 324 324 322 319 317 318 321 323 325 325 325 325 325 324 324 324 323 323 323 322 322 322 323 323 322 321 319 319 318 316 314 313 311 308 307 307
296 295 302 306 305 306 308 308 309 307 301 295 288 286 289 287 274 267 285 311 284 263 264 265 271 279 276 249 212 222 257 300 312 310 305 304 308 312 315 316 317 317 317 317 316 316 317 319 321 323 322 321 319 317 316 319 322 324 325 325 325 325 324 324 323 322 321 321 321 321 320 319 319 319 319 318 317 316 316 314 312 312 312 311 310 310
306 304 306 309 306 308 310 310 312 310 305 298 288 291 298 293 279 261 265 313 298 269 276 280 283 285 281 255 226 264 315 326 325 317 309 309 311 312 314 314 314 315 315 316 317 317 318 320 321 321 320 318 317 317 318 321 323 325 326 325 324 324 323 322 321 320 320 320 321 320 319 319 318 317 317 316 315 313 312 312 311 311 312 312 310 310
314 303 298 304 305 307 311 312 312 310 305 299 294 299 303 294 280 263 259 273 281 279 283 290 292 286 285 288 303 319 322 319 319 312 305 305 308 309 310 311 313 315 315 316 317 317 319 320 319 318 318 318 318 319 322 325 326 326 326 325 323 323 322 322 321 320 320 321 321 321 319 318 317 315 315 314 312 311 311 311 311 310 312 312 310 310
314 289 279 296 303 307 310 312 309 305 301 300 301 307 312 307 290 280 278 272 265 262 281 303 292 281 342 329 314 308 310 314 318 315 311 311 311 312 313 313 314 315 315 316 317 318 318 318 318 318 319 321 322 323 326 327 327 326 325 324 323 322 322 322 321 321 321 321 320 320 319 318 317 315 314 312 311 310 311 311 311 311 313 312 310 310
315 292 279 291 300 303 305 306 300 294 292 296 299 298 296 291 289 291 289 274 256 250 276 297 276 285 304 303 292 302 317 320 318 313 312 312 312 314 314 313 314 315 317 318 318 318 318 318 318 319 322 324 325 327 328 327 326 325 324 323 322 322 322 322 321 320 320 320 320 319 319 318 317 316 315 313 313 313 312 311 311 312 312 311 310 310
314 304 293 296 305 310 311 307 297 290 288 291 296 302 297 288 285 279 275 286 278 267 278 286 280 286 284 262 273 320 321 316 312 309 310 312 312 313 313 314 317 320 321 321 320 320 319 317 318 320 323 326 327 328 328 327 325 324 324 323 322 322 321 320 320 320 320 320 320 320 320 319 318 317 316 316 315 314 313 311 311 310 309 308 307 307
314 312 304 305 311 312 310 307 298 292 295 302 311 315 309 298 293 286 275 280 284 278 278 278 271 275 248 212 286 314 313 310 310 312 313 313 312 312 314 317 321 323 322 321 320 318 316 316 318 321 324 327 328 328 327 326 325 324 324 324 323 321 321 321 322 322 322 322 322 321 320 320 319 318 317 316 315 314 312 310 309 308 306 303 301 301
310 305 302 307 315 316 313 319 328 318 312 311 314 314 307 299 298 295 286 280 279 276 269 256 254 270 259 262 285 294 298 302 308 312 313 312 312 314 317 320 322 322 321 320 318 316 315 316 317 319 324 327 327 327 327 325 324 324 323 323 323 322 323 323 323 323 322 322 322 321 320 319 318 317 316 315 313 312 311 309 307 305 302 298 296 296
306 300 297 294 290 295 299 298 306 308 305 304 306 305 302 301 298 296 295 281 269 286 285 269 279 284 277 282 292 295 299 304 309 313 312 311 313 315 318 321 321 320 318 318 316 314 313 312 312 316 322 325 325 326 326 324 324 324 323 323 324 324 324 323 322 322 322 322 321 320 319 318 317 316 315 313 312 312 311 309 306 303 300 297 295 295
307 304 302 290 275 276 284 288 296 302 300 299 302 301 299 299 297 297 298 282 274 297 296 279 285 295 296 305 311 309 309 310 311 312 311 312 315 317 320 320 318 317 317 317 314 311 310 310 310 314 319 322 324 325 325 324 324 325 324 323 323 323 323 323 323 323 322 321 320 319 318 317 317 316 314 314 314 313 311 309 306 303 301 299 297 296
308 305 305 301 295 294 294 298 305 305 299 300 304 303 301 299 298 299 298 293 297 304 297 292 302 309 312 317 315 310 310 310 309 310 313 315 319 321 320 318 317 318 318 316 314 311 310 310 310 313 318 321 323 324 324 324 324 324 324 323 323 323 323 323 323 322 321 320 320 319 318 318 317 316 316 316 315 314 312 309 307 305 304 303 300 297
310 305 306 307 306 307 308 311 317 316 311 313 309 302 300 295 296 301 299 303 318 309 298 304 312 316 316 313 306 303 305 306 308 312 316 319 321 321 320 320 321 321 319 316 313 311 311 311 312 314 318 320 322 323 323 323 323 324 323 323 323 324 324 323 322 321 320 320 320 320 319 319 318 318 318 317 315 314 311 310 309 309 309 308 303 297
313 307 309 311 309 314 321 325 329 327 324 322 308 297 298 292 296 311 307 305 311 304 303 310 316 320 316 303 298 301 304 307 312 316 319 321 322 323 324 325 324 320 316 313 312 312 313 313 313 315 317 320 322 323 323 324 324 324 324 324 324 324 323 322 321 321 321 322 322 321 321 320 320 320 319 317 315 313 312 311 311 311 312 311 306 298
314 308 313 315 312 321 334 334 329 327 325 320 302 293 301 293 286 298 297 304 310 310 313 317 318 318 311 302 304 308 310 314 318 319 321 324 327 329 328 325 319 315 313 311 311 312 313 313 314 317 319 321 323 324 324 324 325 324 324 325 324 323 322 322 322 322 322 323 323 323 323 322 321 320 319 317 315 314 312 311 311 312 312 312 309 301
317 314 320 323 317 324 334 328 323 322 316 303 268 265 279 278 283 293 300 313 321 320 320 320 317 313 310 309 311 312 314 318 320 322 325 328 329 329 326 320 314 311 310 309 311 312 314 315 318 320 321 323 324 325 325 325 325 324 325 324 323 322 322 322 323 322 322 323 324 325 324 323 322 321 320 319 316 314 313 312 312 312 311 310 309 303
325 322 328 330 315 316 327 328 325 320 307 275 231 254 275 286 295 301 306 315 321 321 319 318 314 310 308 310 313 316 319 321 323 326 330 329 327 326 321 314 309 307 308 311 314 316 317 319 320 322 323 324 325 325 325 324 324 324 324 323 322 321 322 323 323 322 323 324 325 326 325 323 323 322 321 320 318 315 314 313 312 312 310 309 307 303
330 328 332 330 307 312 331 340 333 323 298 242 277 289 294 297 301 307 315 321 321 318 317 314 310 309 309 312 315 317 318 320 323 327 329 325 320 315 311 310 310 311 314 317 319 319 319 321 323 324 325 325 325 324 324 323 324 323 323 322 322 323 323 323 323 324 324 325 326 325 324 324 323 322 321 320 319 317 315 314 313 312 311 309 305 300
334 332 332 327 309 314 336 350 344 340 186 292 300 300 299 300 302 306 314 319 318 317 317 314 311 311 312 312 313 314 317 319 323 327 327 318 312 311 312 315 316 317 319 320 320 320 321 323 325 325 325 324 324 323 323 323 323 322 323 324 324 324 324 324 325 326 326 326 326 325 325 324 323 323 321 320 319 318 317 316 314 313 311 308 304 299
336 335 331 328 318 315 335 350 342 303 285 290 290 287 290 296 302 310 317 320 320 317 315 312 310 310 310 311 314 317 321 323 324 327 325 317 315 318 318 318 318 318 319 320 320 321 324 325 325 324 324 324 323 323 323 323 323 323 324 325 325 325 325 326 326 326 326 326 327 326 326 325 324 323 322 321 320 320 318 317 315 314 311 308 303 298
339 339 333 331 333 326 327 328 314 293 278 275 280 285 295 302 312 323 325 321 317 313 310 309 309 309 313 317 321 323 325 325 324 325 324 322 321 321 318 317 317 318 320 321 322 323 324 324 325 325 325 325 325 325 325 324 325 325 325 325 325 326 326 326 326 326 327 328 328 327 327 326 325 324 323 322 322 320 319 318 316 314 311 307 303 298
339 342 336 330 333 337 331 324 313 298 262 264 280 289 298 304 312 322 321 315 310 308 308 309 312 315 320 324 325 326 326 326 325 326 326 325 323 320 318 319 320 321 323 324 325 324 324 325 326 326 327 326 325 325 325 325 326 326 326 326 326 326 326 326 326 327 328 328 328 328 328 327 327 325 324 323 322 321 319 318 316 314 311 307 302 298
338 345 347 341 337 339 336 323 307 296 273 279 289 295 300 304 311 317 315 308 302 304 310 314 318 322 325 326 325 326 328 327 325 325 325 324 321 320 321 324 325 325 326 326 326 325 325 326 327 327 326 325 324 325 325 326 326 327 327 327 327 327 327 327 327 328 328 328 329 329 329 328 328 326 324 323 322 320 319 317 316 313 309 306 301 296
344 351 354 356 347 335 328 315 300 294 285 288 297 303 306 310 315 317 311 300 306 312 315 318 322 324 325 325 324 325 327 325 323 323 325 324 324 324 325 326 325 325 326 326 326 325 325 325 326 326 325 324 324 325 326 326 327 327 328 328 328 327 327 327 328 329 329 330 330 330 330 329 328 326 324 323 321 320 318 317 315 312 308 305 300 295
346 357 3 352 339 337 332 314 302 293 285 291 303 308 311 316 320 317 296 301 311 316 317 319 322 324 324 323 322 322 324 324 323 324 326 327 327 327 326 324 325 325 325 325 325 325 325 325 325 325 325 325 326 326 326 327 327 327 328 328 328 328 328 328 329 330 330 331 331 331 331 330 329 327 325 323 322 320 319 317 315 312 308 303 299 294
348 3 11 342 333 339 334 314 305 296 291 301 310 311 314 322 327 315 304 306 309 313 317 320 322 323 324 323 321 321 323 325 325 326 328 329 328 326 325 325 326 325 325 325 325 326 326 327 326 326 326 327 327 328 328 328 328 328 329 329 329 329 329 330 330 331 332 332 332 332 332 331 330 329 327 325 323 321 319 317 314 310 306 302 298 295
346 355 3 342 337 339 334 324 323 307 301 308 314 315 319 326 326 312 308 310 311 315 319 322 323 324 326 325 324 323 325 327 327 329 330 329 328 326 326 328 328 327 327 327 327 327 327 327 327 327 328 329 329 329 329 329 329 330 330 330 330 330 330 331 332 333 333 333 333 333 333 333 332 330 328 327 324 322 319 317 313 309 305 302 299 295
342 345 346 345 343 336 327 325 317 299 299 308 315 316 317 321 315 307 307 312 316 321 323 324 325 327 328 327 327 328 329 330 330 330 330 330 330 328 329 330 329 328 328 328 328 328 328 328 328 329 330 330 330 330 331 330 330 331 331 332 331 331 331 331 332 333 333 333 334 334 334 334 332 331 330 329 326 323 320 317 313 309 305 302 299 295
345 347 340 341 341 332 323 317 303 295 301 310 313 312 313 313 309 308 311 316 322 325 326 327 329 330 329 329 329 329 330 331 331 331 332 332 331 330 330 330 330 329 329 329 329 329 328 329 329 330 331 331 331 331 332 332 332 332 332 332 332 332 332 332 333 334 334 334 334 335 335 334 334 333 333 331 329 325 322 317 313 309 306 304 300 294
341 345 341 341 339 335 330 315 299 303 314 319 317 315 316 316 315 317 321 325 327 329 329 330 332 331 330 330 328 329 331 333 333 333 333 332 331 330 330 331 331 331 331 331 330 330 330 330 331 331 331 332 332 333 333 333 334 333 333 333 333 333 333 333 334 334 334 335 336 336 336 336 336 335 334 333 330 327 323 318 314 310 308 306 301 294
340 339 341 343 339 335 332 320 312 318 326 327 324 322 320 320 323 327 329 330 331 332 333 333 331 330 331 330 329 331 334 335 334 334 334 332 330 331 331 332 332 333 333 332 332 331 332 332 332 332 332 333 333 334 334 334 335 334 334 334 334 333 333 334 334 335 335 336 337 337 338 338 337 336 335 334 332 329 325 320 315 313 311 307 301 293
339 335 339 341 337 334 333 327 322 325 329 329 328 327 324 326 331 334 333 333 332 333 334 334 332 332 333 334 333 333 335 335 335 334 333 332 331 332 332 333 333 334 333 333 333 333 333 333 333 334 334 334 334 335 335 335 335 335 335 334 334 334 334 334 335 336 337 338 339 340 340 339 338 337 336 335 334 332 328 324 319 315 313 309 302 294
331 335 338 337 333 333 334 329 327 329 331 331 332 330 326 329 334 335 334 334 333 333 335 335 334 335 336 335 334 333 334 335 334 333 333 332 332 332 333 334 334 334 334 334 335 335 335 334 335 335 335 335 336 336 336 336 336 335 335 335 335 334 334 334 335 337 338 339 340 340 339 339 339 339 337 336 336 335 333 328 323 319 317 311 303 296
325 333 335 333 332 333 333 330 328 329 330 331 333 330 327 330 334 335 334 333 333 334 335 334 334 335 335 334 333 333 332 333 334 333 333 333 332 333 334 335 335 335 335 336 336 336 336 336 336 336 336 336 336 336 336 336 336 336 336 335 335 335 335 334 336 338 339 341 341 340 340 341 342 341 339 338 338 338 338 335 327 323 320 314 304 296
327 331 332 332 331 331 330 328 327 326 327 329 330 328 328 331 333 332 332 334 334 335 334 334 334 334 334 333 333 332 331 333 334 334 333 333 334 335 335 335 336 336 336 337 337 336 336 336 336 336 336 337 337 337 337 337 337 337 336 336 336 336 335 335 337 339 340 341 341 340 341 343 343 342 340 341 342 342 343 343 336 328 324 320 309 295
Height
3138 3137 3136 3136 3135 3135 3134 3133 3132 3131 3130 3128 3127 3125 3123 3121 3119 3120 3118 3116 3116 3112 3110 3110 3106 3104 3104 3102 3101 3099 3097 3095 3094 3094 3093 3092 3091 3091 3090 3089 3088 3087 3086 3086 3087 3087 3086 3084 3084 3083 3082 3081 3080 3078 3077 3075 3073 3070 3068 3066 3064 3062 3059 3056 3053 3051 3048 3045 3043 3040 3038 3035 3032 3029 3026 3024 3023 3021 3019 3017 3015 3013 3012 3010 3009 3006
3136 3135 3134 3134 3134 3133 3132 3131 3130 3129 3128 3126 3125 3123 3121 3119 3117 3117 3116 3114 3114 3110 3108 3107 3103 3101 3101 3099 3097 3095 3093 3093 3092 3092 3091 3090 3090 3089 3088 3088 3086 3085 3085 3085 3085 3084 3083 3082 3081 3080 3079 3078 3077 3075 3073 3072 3070 3067 3065 3063 3061 3058 3056 3052 3049 3046 3043 3041 3038 3035 3033 3030 3027 3024 3020 3018 3016 3014 3012 3011 3009 3007 3006 3004 3003 3001
3134 3132 3132 3132 3131 3131 3130 3129 3128 3126 3125 3124 3123 3121 3119 3118 3116 3114 3114 3112 3111 3108 3105 3104 3099 3097 3097 3096 3093 3092 3091 3091 3090 3090 3090 3089 3088 3087 3086 3086 3085 3084 3084 3084 3083 3082 3081 3080 3078 3077 3076 3075 3073 3071 3070 3068 3066 3064 3061 3059 3057 3054 3051 3048 3045 3042 3039 3036 3033 3029 3027 3024 3021 3018 3015 3011 3008 3006 3004 3003 3003 3001 3000 2998 2997 2995
3132 3131 3130 3130 3130 3129 3127 3126 3125 3124 3123 3122 3121 3119 3117 3116 3115 3112 3111 3110 3109 3106 3103 3101 3096 3092 3093 3092 3091 3090 3089 3089 3089 3088 3088 3087 3086 3085 3084 3084 3084 3084 3083 3082 3081 3080 3078 3077 3076 3074 3073 3072 3070 3068 3066 3064 3062 3060 3057 3055 3052 3049 3046 3043 3040 3037 3034 3031 3028 3025 3021 3018 3016 3013 3010 3007 3003 3000 2997 2996 2995 2994 2993 2991 2990 2989
3131 3130 3129 3129 3127 3126 3125 3124 3123 3121 3120 3119 3118 3117 3115 3114 3113 3111 3109 3107 3105 3103 3101 3099 3093 3089 3090 3090 3089 3089 3088 3087 3087 3087 3086 3086 3085 3084 3084 3083 3082 3082 3081 3079 3079 3077 3076 3075 3073 3072 3070 3068 3067 3065 3063 3060 3058 3056 3053 3051 3048 3044 3041 3038 3035 3032 3029 3026 3023 3020 3017 3014 3011 3009 3006 3003 3000 2997 2994 2991 2989 2987 2985 2984 2983 2981
3128 3128 3127 3126 3125 3124 3122 3121 3121 3119 3117 3116 3115 3115 3113 3112 3111 3110 3108 3105 3102 3101 3100 3100 3096 3088 3087 3089 3087 3087 3087 3086 3086 3085 3084 3084 3084 3083 3082 3081 3080 3079 3079 3078 3076 3075 3074 3072 3071 3069 3067 3065 3063 3061 3058 3056 3054 3051 3048 3046 3043 3039 3036 3033 3030 3027 3024 3020 3017 3014 3011 3008 3004 3002 3000 2997 2994 2992 2989 2986 2983 2981 2979 2977 2976 2974
3126 3125 3125 3124 3123 3122 3120 3119 3118 3117 3115 3114 3113 3113 3112 3111 3110 3108 3107 3104 3101 3099 3098 3099 3099 3090 3085 3087 3086 3084 3084 3084 3084 3084 3083 3083 3083 3082 3080 3077 3077 3077 3077 3075 3074 3073 3071 3070 3068 3067 3065 3062 3059 3057 3055 3052 3050 3047 3044 3041 3037 3034 3032 3029 3025 3022 3019 3015 3011 3008 3004 3001 2998 2995 2992 2990 2987 2984 2981 2978 2976 2974 2972 2971 2969 2967
3124 3123 3123 3122 3120 3119 3118 3116 3116 3115 3114 3112 3111 3111 3110 3109 3108 3106 3105 3103 3100 3098 3096 3095 3097 3092 3085 3084 3084 3083 3083 3083 3083 3083 3082 3082 3081 3079 3077 3075 3075 3075 3074 3073 3072 3071 3069 3068 3066 3064 3062 3059 3057 3054 3051 3048 3045 3042 3040 3037 3033 3029 3026 3023 3019 3015 3012 3008 3005 3002 2999 2995 2992 2988 2985 2983 2980 2978 2975 2972 2969 2966 2964 2963 2962 2961
3122 3121 3120 3119 3118 3116 3115 3114 3113 3113 3112 3110 3109 3109 3108 3107 3106 3104 3102 3100 3098 3097 3094 3092 3094 3092 3087 3084 3084 3082 3082 3082 3082 3084 3083 3081 3078 3076 3075 3074 3074 3074 3073 3071 3070 3069 3067 3066 3063 3061 3059 3056 3053 3050 3047 3044 3041 3038 3035 3032 3028 3024 3020 3015 3011 3007 3004 3000 2998 2995 2992 2989 2986 2982 2979 2976 2974 2972 2969 2967 2965 2961 2958 2955 2954 2953
3119 3119 3118 3117 3116 3114 3113 3113 3112 3111 3109 3108 3108 3107 3106 3105 3103 3102 3099 3097 3098 3097 3092 3090 3092 3091 3087 3084 3083 3082 3082 3082 3083 3083 3082 3079 3076 3075 3074 3074 3073 3072 3071 3069 3068 3066 3064 3062 3060 3057 3054 3051 3048 3045 3042 3039 3036 3033 3030 3026 3022 3018 3014 3009 3005 3001 2997 2994 2990 2988 2985 2982 2979 2977 2974 2971 2969 2967 2964 2961 2959 2956 2953 2949 2947 2945
3118 3117 3116 3115 3114 3113 3112 3111 3110 3109 3108 3107 3106 3105 3104 3102 3101 3099 3098 3097 3098 3095 3090 3089 3091 3091 3088 3084 3083 3083 3082 3082 3082 3080 3079 3077 3075 3074 3073 3073 3072 3070 3069 3067 3065 3063 3061 3058 3055 3052 3049 3046 3043 3040 3037 3034 3031 3027 3023 3019 3015 3011 3008 3004 3000 2996 2993 2989 2985 2982 2979 2976 2974 2971 2969 2966 2964 2962 2959 2955 2953 2950 2947 2944 2941 2938
3116 3115 3114 3113 3112 3111 3110 3109 3108 3108 3107 3106 3105 3104 3101 3100 3098 3097 3097 3098 3098 3094 3090 3090 3090 3090 3089 3085 3083 3083 3082 3081 3080 3078 3077 3076 3074 3073 3072 3071 3069 3068 3066 3064 3062 3060 3057 3054 3052 3048 3045 3042 3040 3037 3033 3029 3024 3020 3016 3011 3008 3004 3001 2998 2994 2991 2987 2985 2981 2978 2974 2971 2968 2966 2964 2961 2958 2956 2953 2950 2947 2944 2941 2938 2935 2931
3113 3113 3112 3111 3111 3110 3109 3108 3107 3106 3106 3105 3104 3104 3102 3099 3098 3097 3096 3096 3095 3092 3090 3090 3090 3089 3086 3084 3082 3082 3081 3080 3079 3077 3076 3074 3073 3072 3070 3068 3067 3065 3062 3061 3059 3056 3053 3050 3047 3044 3041 3038 3036 3032 3027 3023 3018 3013 3009 3005 3001 2997 2994 2990 2987 2984 2982 2980 2977 2974 2971 2967 2964 2961 2958 2955 2952 2950 2947 2944 2941 2938 2935 2932 2930 2926
3111 3110 3111 3110 3110 3109 3108 3107 3106 3105 3104 3104 3103 3103 3103 3102 3101 3099 3096 3093 3092 3091 3090 3090 3089 3086 3083 3082 3081 3080 3079 3079 3078 3076 3075 3073 3072 3070 3068 3066 3064 3062 3060 3058 3055 3052 3049 3046 3043 3040 3037 3034 3030 3026 3021 3017 3012 3008 3004 3000 2995 2991 2988 2985 2982 2979 2977 2974 2972 2969 2967 2964 2960 2957 2953 2949 2946 2943 2940 2937 2934 2931 2929 2926 2923 2920
3111 3109 3109 3110 3109 3108 3108 3107 3106 3105 3104 3103 3102 3103 3102 3102 3103 3100 3096 3094 3092 3090 3089 3089 3088 3084 3080 3080 3079 3078 3078 3077 3076 3075 3073 3072 3071 3069 3066 3064 3062 3060 3058 3055 3052 3050 3046 3043 3040 3037 3033 3029 3024 3020 3016 3012 3007 3003 2999 2995 2991 2987 2984 2981 2978 2974 2971 2968 2965 2963 2961 2958 2955 2952 2948 2944 2940 2937 2934 2931 2928 2925 2922 2919 2917 2914
3112 3109 3108 3109 3109 3108 3107 3106 3105 3104 3103 3102 3101 3102 3101 3100 3101 3098 3095 3093 3091 3090 3088 3087 3086 3083 3080 3079 3078 3077 3076 3074 3074 3072 3071 3070 3068 3066 3064 3062 3061 3058 3056 3053 3050 3047 3043 3040 3037 3033 3029 3024 3020 3016 3011 3007 3003 2999 2995 2991 2987 2984 2981 2977 2974 2970 2966 2963 2959 2956 2953 2950 2947 2944 2941 2937 2934 2931 2927 2924 2921 2918 2915 2912 2910 2908
3111 3109 3108 3108 3107 3106 3106 3104 3104 3103 3102 3101 3100 3100 3099 3099 3098 3096 3094 3092 3091 3091 3087 3083 3083 3082 3080 3079 3077 3076 3074 3073 3072 3070 3069 3067 3065 3064 3062 3060 3057 3055 3052 3049 3046 3043 3040 3037 3033 3029 3024 3020 3016 3011 3006 3002 2999 2995 2991 2987 2983 2979 2976 2972 2969 2965 2962 2958 2954 2950 2947 2943 2940 2937 2933 2930 2926 2923 2920 2918 2915 2913 2910 2906 2903 2900
3112 3107 3106 3107 3105 3104 3104 3103 3102 3102 3101 3100 3099 3098 3098 3097 3096 3096 3094 3091 3091 3090 3084 3081 3082 3081 3080 3078 3075 3074 3073 3071 3069 3068 3067 3065 3063 3061 3059 3056 3054 3051 3048 3046 3042 3039 3036 3032 3028 3024 3020 3016 3012 3007 3002 2998 2995 2991 2987 2982 2978 2975 2971 2968 2964 2960 2957 2954 2950 2946 2943 2939 2935 2931 2928 2924 2921 2917 2914 2911 2908 2905 2902 2899 2895 2892
3113 3107 3103 3104 3104 3103 3103 3102 3100 3099 3099 3098 3097 3097 3097 3096 3095 3096 3095 3092 3091 3088 3083 3080 3080 3080 3079 3077 3075 3073 3072 3069 3067 3066 3065 3062 3060 3058 3056 3054 3052 3049 3046 3042 3038 3035 3031 3027 3023 3019 3016 3012 3007 3002 2998 2994 2990 2986 2982 2978 2974 2970 2967 2963 2960 2956 2952 2949 2946 2942 2938 2935 2931 2927 2923 2919 2915 2911 2908 2904 2900 2897 2895 2891 2887 2884
3113 3109 3103 3101 3103 3102 3101 3100 3099 3097 3097 3096 3096 3095 3096 3095 3095 3094 3094 3092 3091 3088 3083 3079 3078 3079 3077 3076 3075 3072 3069 3067 3065 3064 3062 3060 3058 3057 3055 3052 3049 3046 3042 3037 3034 3030 3026 3022 3019 3015 3011 3006 3002 2997 2994 2990 2985 2981 2977 2973 2969 2966 2962 2959 2955 2951 2947 2944 2941 2937 2933 2930 2926 2922 2918 2914 2910 2906 2902 2899 2894 2890 2888 2885 2881 2878
3112 3110 3104 3100 3101 3100 3099 3098 3097 3096 3095 3094 3095 3094 3094 3094 3093 3092 3091 3090 3089 3087 3083 3080 3078 3077 3077 3076 3074 3070 3067 3065 3062 3061 3059 3058 3056 3054 3052 3049 3045 3042 3038 3033 3030 3026 3022 3018 3014 3010 3006 3001 2997 2993 2989 2985 2981 2977 2973 2968 2964 2960 2957 2953 2950 2946 2942 2938 2935 2932 2928 2925 2921 2917 2913 2909 2906 2901 2897 2893 2888 2883 2880 2877 2874 2871
3110 3109 3104 3100 3099 3099 3098 3097 3096 3095 3094 3094 3093 3093 3093 3093 3092 3091 3089 3087 3087 3085 3083 3082 3078 3075 3077 3076 3071 3068 3066 3063 3060 3059 3057 3055 3053 3051 3048 3045 3042 3038 3034 3029 3025 3021 3016 3012 3008 3004 3001 2997 2993 2989 2984 2980 2976 2972 2968 2964 2960 2956 2952 2948 2944 2941 2937 2933 2930 2926 2923 2919 2915 2911 2907 2903 2899 2895 2890 2886 2881 2876 2872 2869 2866 2863
3108 3106 3103 3100 3098 3097 3096 3095 3094 3093 3093 3093 3093 3092 3092 3092 3091 3091 3088 3085 3085 3084 3082 3082 3078 3074 3075 3073 3069 3066 3064 3061 3059 3057 3055 3053 3050 3048 3044 3041 3037 3033 3029 3024 3020 3015 3011 3007 3003 3000 2996 2992 2988 2984 2979 2975 2971 2966 2962 2958 2954 2951 2947 2943 2939 2936 2932 2928 2925 2921 2917 2913 2909 2905 2901 2897 2892 2888 2883 2879 2874 2870 2866 2862 2858 2855
3107 3105 3101 3098 3096 3095 3094 3093 3092 3092 3092 3092 3091 3090 3090 3090 3089 3088 3087 3085 3083 3081 3080 3081 3077 3073 3071 3069 3067 3065 3062 3059 3058 3055 3053 3050 3046 3043 3039 3035 3032 3028 3023 3019 3015 3010 3006 3003 2999 2995 2991 2987 2983 2978 2974 2970 2965 2961 2957 2953 2949 2945 2942 2938 2933 2930 2926 2922 2918 2914 2910 2907 2903 2899 2894 2890 2885 2881 2876 2872 2867 2863 2859 2856 2852 2848
3105 3104 3101 3098 3095 3094 3092 3092 3091 3091 3091 3090 3089 3088 3088 3087 3086 3085 3084 3083 3081 3078 3078 3078 3074 3071 3070 3067 3065 3063 3060 3058 3056 3053 3050 3047 3042 3039 3035 3031 3028 3023 3019 3015 3010 3005 3002 2998 2995 2991 2987 2982 2978 2973 2969 2965 2960 2956 2952 2948 2943 2939 2936 2932 2927 2923 2920 2916 2912 2908 2904 2900 2896 2892 2887 2883 2878 2874 2869 2865 2860 2856 2853 2850 2846 2842
3103 3102 3101 3099 3098 3095 3093 3093 3092 3090 3089 3088 3088 3086 3085 3084 3083 3082 3081 3081 3079 3076 3076 3076 3072 3068 3068 3067 3063 3060 3058 3056 3053 3050 3047 3043 3039 3035 3031 3028 3023 3019 3014 3010 3006 3002 2999 2995 2991 2987 2982 2978 2973 2969 2964 2959 2955 2950 2946 2942 2938 2933 2929 2926 2922 2918 2914 2910 2906 2902 2898 2894 2890 2885 2880 2876 2871 2867 2862 2857 2853 2849 2845 2842 2839 2835
3100 3099 3099 3098 3097 3095 3093 3092 3091 3090 3087 3086 3085 3084 3083 3082 3081 3080 3080 3079 3078 3075 3073 3074 3071 3066 3065 3064 3060 3057 3055 3052 3048 3045 3042 3039 3036 3032 3028 3024 3019 3014 3011 3007 3003 2999 2995 2991 2986 2982 2977 2973 2968 2964 2959 2953 2949 2945 2940 2937 2933 2928 2924 2920 2916 2912 2908 2904 2900 2896 2892 2887 2883 2878 2873 2868 2863 2859 2854 2849 2845 2841 2837 2834 2830 2826
3099 3096 3096 3095 3093 3092 3091 3089 3089 3088 3085 3084 3083 3082 3081 3080 3079 3078 3078 3077 3076 3074 3071 3070 3070 3067 3064 3062 3058 3053 3051 3048 3045 3042 3038 3035 3032 3028 3024 3019 3014 3010 3006 3003 2999 2995 2991 2986 2981 2977 2972 2967 2962 2958 2953 2948 2944 2940 2935 2931 2927 2923 2918 2914 2910 2906 2902 2898 2893 2889 2885 2880 2876 2871 2866 2860 2855 2850 2846 2841 2837 2833 2829 2825 2822 2818
3097 3094 3092 3092 3090 3089 3089 3087 3086 3085 3083 3082 3081 3081 3079 3078 3077 3077 3076 3075 3075 3074 3071 3068 3068 3066 3063 3060 3056 3052 3049 3046 3042 3039 3035 3032 3028 3024 3018 3013 3009 3006 3002 2999 2995 2991 2986 2981 2976 2971 2966 2961 2957 2952 2947 2943 2938 2934 2930 2926 2921 2917 2912 2908 2904 2900 2896 2891 2887 2882 2878 2873 2868 2863 2858 2852 2847 2843 2838 2833 2828 2824 2820 2817 2814 2809
3095 3092 3090 3090 3088 3087 3086 3085 3083 3082 3081 3080 3079 3078 3077 3076 3076 3076 3075 3074 3073 3072 3070 3067 3065 3064 3062 3057 3054 3051 3048 3044 3040 3037 3033 3029 3023 3018 3013 3009 3006 3002 2999 2995 2990 2986 2981 2977 2971 2966 2961 2956 2951 2945 2941 2936 2932 2928 2924 2920 2915 2911 2906 2902 2898 2893 2889 2885 2880 2875 2871 2866 2861 2856 2850 2845 2840 2835 2830 2825 2820 2816 2812 2809 2806 2802
3093 3091 3090 3088 3086 3084 3084 3083 3082 3080 3079 3079 3078 3076 3076 3076 3075 3074 3073 3073 3071 3069 3067 3065 3062 3060 3058 3055 3051 3048 3044 3040 3037 3033 3029 3024 3019 3014 3010 3006 3002 2999 2995 2990 2986 2982 2977 2972 2966 2961 2955 2950 2945 2940 2935 2931 2927 2922 2918 2914 2910 2905 2901 2896 2892 2887 2882 2878 2874 2868 2863 2858 2854 2849 2844 2838 2833 2828 2823 2818 2813 2808 2804 2800 2798 2794
3092 3089 3088 3087 3084 3082 3082 3081 3080 3079 3078 3077 3076 3075 3074 3074 3073 3073 3072 3071 3069 3066 3063 3061 3059 3056 3053 3050 3047 3044 3041 3037 3033 3028 3024 3019 3015 3011 3007 3003 2999 2995 2990 2986 2982 2978 2972 2966 2960 2954 2949 2944 2940 2935 2930 2925 2921 2917 2913 2909 2905 2900 2896 2891 2886 2881 2877 2872 2867 2861 2856 2851 2846 2841 2837 2832 2826 2821 2816 2811 2807 2802 2797 2793 2790 2787
3090 3088 3087 3086 3083 3081 3081 3080 3079 3077 3076 3076 3075 3074 3074 3073 3072 3071 3071 3070 3068 3065 3061 3058 3056 3053 3049 3046 3043 3039 3036 3033 3029 3025 3021 3016 3011 3008 3005 3001 2996 2991 2986 2982 2978 2972 2965 2959 2954 2949 2944 2940 2935 2931 2925 2921 2916 2912 2908 2904 2900 2896 2891 2886 2881 2876 2870 2865 2860 2855 2849 2843 2838 2833 2829 2824 2820 2815 2810 2805 2800 2796 2791 2786 2783 2780
3089 3087 3086 3085 3082 3080 3079 3079 3076 3075 3075 3075 3074 3074 3073 3072 3070 3069 3069 3067 3065 3062 3060 3057 3054 3050 3047 3044 3040 3036 3033 3030 3026 3023 3020 3015 3010 3006 3002 2997 2992 2985 2981 2977 2971 2965 2959 2954 2949 2945 2940 2936 2931 2927 2922 2917 2912 2908 2903 2899 2895 2890 2885 2880 2875 2870 2864 2859 2854 2848 2843 2837 2831 2826 2821 2817 2813 2808 2803 2798 2793 2789 2784 2780 2776 2773
3088 3087 3085 3084 3082 3080 3078 3078 3076 3074 3074 3074 3073 3073 3072 3070 3069 3068 3067 3066 3063 3059 3056 3054 3051 3048 3045 3042 3039 3035 3031 3027 3023 3020 3017 3013 3008 3003 2997 2991 2984 2979 2975 2971 2965 2959 2955 2950 2945 2941 2937 2932 2927 2923 2918 2913 2908 2904 2899 2893 2888 2883 2878 2873 2868 2863 2858 2852 2847 2841 2836 2831 2825 2820 2815 2810 2805 2801 2796 2791 2786 2782 2778 2774 2770 2767
3088 3086 3084 3083 3082 3080 3079 3079 3078 3076 3074 3073 3072 3071 3071 3069 3068 3066 3063 3061 3059 3055 3052 3049 3047 3045 3042 3039 3035 3031 3026 3021 3018 3016 3013 3008 3003 2998 2992 2985 2979 2975 2971 2966 2960 2954 2950 2946 2941 2936 2932 2928 2923 2918 2913 2908 2903 2898 2893 2887 2882 2877 2871 2866 2861 2856 2851 2846 2840 2834 2829 2823 2818 2813 2808 2803 2798 2793 2788 2784 2779 2775 2771 2768 2765 2762
3087 3086 3084 3082 3082 3081 3080 3079 3078 3076 3074 3072 3070 3070 3069 3067 3066 3065 3060 3056 3054 3052 3049 3046 3044 3041 3038 3034 3029 3024 3019 3014 3010 3009 3007 3002 2998 2993 2988 2982 2977 2972 2968 2962 2956 2951 2946 2942 2938 2932 2926 2921 2916 2912 2907 2902 2897 2892 2887 2882 2876 2871 2866 2861 2855 2850 2844 2839 2833 2828 2822 2817 2811 2806 2801 2796 2791 2786 2781 2777 2772 2769 2765 2762 2759 2757
3087 3085 3084 3083 3082 3081 3080 3078 3077 3075 3073 3071 3070 3069 3068 3066 3066 3065 3060 3055 3052 3050 3047 3045 3041 3037 3032 3028 3022 3017 3013 3007 3002 3000 2998 2995 2991 2987 2982 2977 2973 2968 2963 2958 2952 2947 2941 2936 2932 2927 2922 2916 2911 2906 2901 2897 2892 2887 2881 2876 2871 2866 2860 2855 2849 2844 2838 2833 2828 2822 2816 2811 2805 2800 2794 2789 2784 2779 2775 2771 2766 2763 2760 2757 2754 2752
3086 3085 3084 3083 3082 3081 3080 3079 3077 3074 3072 3070 3069 3068 3067 3066 3065 3063 3058 3052 3049 3049 3046 3042 3038 3032 3027 3023 3018 3014 3010 3003 2996 2993 2992 2989 2985 2981 2976 2971 2967 2962 2958 2954 2948 2942 2937 2932 2928 2923 2918 2913 2908 2902 2897 2892 2887 2881 2876 2870 2865 2860 2854 2849 2844 2838 2833 2827 2822 2816 2811 2805 2800 2794 2788 2783 2778 2773 2769 2765 2761 2757 2754 2752 2750 2748
3085 3084 3083 3082 3082 3082 3080 3079 3078 3074 3071 3069 3068 3066 3065 3064 3063 3060 3055 3049 3046 3046 3042 3038 3033 3029 3024 3020 3015 3011 3008 3004 2996 2991 2988 2985 2981 2977 2972 2967 2962 2958 2954 2950 2946 2940 2935 2929 2924 2920 2915 2910 2904 2899 2893 2887 2882 2876 2870 2865 2860 2854 2849 2843 2838 2833 2827 2822 2816 2811 2805 2799 2794 2789 2783 2777 2772 2768 2763 2759 2755 2752 2749 2747 2745 2743
3084 3084 3083 3082 3082 3081 3080 3078 3077 3074 3070 3068 3067 3065 3062 3060 3059 3057 3053 3047 3043 3040 3037 3033 3030 3025 3020 3017 3012 3008 3006 3002 2996 2990 2986 2982 2978 2974 2970 2965 2960 2955 2950 2946 2941 2937 2932 2927 2921 2916 2910 2905 2900 2895 2889 2884 2878 2872 2866 2861 2855 2849 2844 2838 2833 2827 2822 2816 2811 2805 2800 2794 2788 2783 2777 2771 2766 2762 2758 2754 2750 2747 2744 2742 2741 2739
3084 3083 3083 3082 3081 3080 3079 3077 3075 3072 3069 3067 3065 3063 3059 3056 3055 3053 3050 3046 3041 3037 3033 3030 3026 3021 3016 3013 3009 3005 3001 2997 2993 2988 2983 2979 2975 2970 2966 2962 2958 2953 2948 2943 2938 2932 2928 2923 2918 2912 2906 2900 2895 2889 2884 2878 2873 2868 2862 2856 2850 2844 2839 2833 2827 2822 2816 2811 2805 2800 2794 2788 2783 2776 2771 2766 2760 2756 2752 2749 2746 2743 2740 2738 2736 2735
3084 3083 3083 3082 3080 3079 3078 3076 3074 3071 3067 3064 3062 3060 3056 3054 3053 3050 3045 3042 3039 3034 3030 3026 3022 3017 3013 3009 3005 3001 2996 2992 2988 2984 2980 2976 2972 2967 2963 2958 2953 2948 2943 2938 2933 2928 2922 2918 2913 2908 2902 2896 2890 2884 2879 2873 2868 2862 2857 2851 2846 2840 2834 2828 2822 2817 2811 2805 2800 2794 2789 2783 2777 2772 2766 2761 2755 2751 2747 2744 2741 2738 2736 2734 2732 2731
3084 3083 3083 3082 3081 3079 3077 3076 3075 3071 3066 3063 3061 3058 3055 3053 3051 3047 3042 3038 3034 3030 3027 3023 3019 3015 3010 3005 3000 2996 2992 2988 2984 2980 2976 2972 2968 2963 2958 2954 2950 2945 2940 2934 2929 2924 2918 2913 2908 2903 2897 2891 2886 2880 2874 2868 2863 2858 2852 2846 2840 2835 2829 2824 2818 2812 2806 2801 2795 2790 2784 2778 2773 2767 2762 2756 2751 2746 2743 2739 2736 2734 2732 2730 2728 2727
3084 3083 3082 3082 3081 3079 3077 3074 3072 3069 3066 3064 3061 3057 3053 3050 3047 3043 3039 3035 3032 3028 3024 3019 3015 3011 3007 3002 2996 2992 2988 2985 2981 2976 2972 2967 2963 2958 2954 2950 2946 2941 2936 2931 2926 2920 2915 2909 2904 2899 2893 2888 2882 2876 2870 2864 2858 2852 2847 2841 2835 2830 2824 2819 2813 2808 2802 2796 2791 2785 2780 2774 2769 2763 2758 2752 2747 2742 2738 2735 2732 2730 2728 2726 2725 2724
3083 3083 3081 3080 3078 3077 3075 3072 3069 3066 3064 3062 3058 3054 3050 3047 3043 3039 3036 3033 3029 3024 3020 3015 3011 3006 3002 2998 2993 2989 2985 2981 2977 2972 2968 2963 2959 2955 2951 2946 2942 2937 2932 2927 2922 2917 2911 2906 2900 2895 2889 2884 2877 2871 2866 2860 2853 2847 2842 2837 2831 2825 2820 2814 2809 2804 2798 2792 2787 2781 2775 2770 2764 2759 2754 2749 2744 2739 2735 2731 2728 2726 2725 2723 2722 2721
3082 3081 3080 3078 3076 3074 3072 3069 3065 3062 3060 3057 3054 3050 3046 3042 3039 3035 3031 3028 3024 3020 3016 3012 3007 3003 2999 2995 2989 2984 2981 2977 2973 2969 2965 2960 2955 2951 2947 2942 2937 2932 2927 2922 2917 2912 2906 2901 2896 2890 2885 2879 2874 2868 2862 2856 2850 2844 2838 2833 2827 2821 2816 2811 2805 2800 2794 2789 2783 2777 2771 2766 2760 2755 2750 2745 2740 2736 2732 2728 2725 2723 2722 2721 2720 2719
3081 3079 3077 3075 3073 3071 3068 3065 3061 3058 3057 3054 3050 3046 3041 3037 3034 3031 3027 3023 3019 3015 3012 3008 3004 2999 2995 2990 2985 2980 2976 2973 2969 2965 2961 2956 2951 2947 2943 2938 2933 2928 2923 2918 2913 2907 2902 2896 2891 2885 2880 2874 2869 2864 2858 2852 2847 2841 2835 2829 2823 2818 2812 2807 2802 2796 2791 2785 2780 2774 2768 2763 2757 2751 2746 2741 2737 2733 2729 2725 2723 2721 2720 2718 2717 2717
3079 3077 3075 3072 3070 3068 3065 3061 3057 3054 3051 3049 3046 3042 3037 3033 3030 3027 3024 3019 3015 3010 3007 3003 2999 2995 2990 2986 2982 2977 2973 2970 2966 2962 2957 2953 2948 2943 2939 2934 2929 2924 2919 2914 2908 2903 2897 2891 2886 2881 2875 2870 2864 2859 2854 2848 2843 2837 2831 2825 2820 2814 2808 2803 2799 2794 2788 2782 2777 2771 2766 2761 2755 2749 2743 2738 2734 2731 2727 2723 2720 2719 2718 2717 2716 2716
3077 3075 3073 3070 3067 3064 3061 3058 3054 3050 3046 3044 3042 3038 3034 3030 3027 3024 3020 3016 3012 3007 3003 2999 2995 2991 2987 2983 2979 2975 2971 2968 2964 2960 2955 2950 2945 2940 2935 2930 2925 2920 2915 2910 2904 2899 2893 2887 2882 2876 2871 2866 2861 2855 2850 2844 2839 2834 2828 2822 2817 2811 2805 2799 2795 2790 2785 2779 2774 2769 2763 2758 2753 2747 2742 2736 2731 2729 2726 2723 2719 2717 2716 2716 2715 2715
3076 3074 3071 3068 3065 3062 3059 3056 3052 3049 3045 3042 3039 3036 3031 3027 3024 3020 3017 3013 3008 3004 3000 2995 2991 2988 2984 2981 2977 2973 2969 2965 2961 2957 2952 2947 2942 2937 2931 2926 2921 2916 2911 2906 2900 2895 2890 2884 2878 2873 2867 2862 2856 2851 2846 2841 2836 2831 2825 2820 2814 2808 2802 2796 2791 2786 2781 2776 2772 2766 2761 2756 2750 2745 2740 2735 2730 2726 2724 2722 2719 2717 2715 2715 2715 2715